Location: Linton
(52.0940°N, 0.2850°E)
Time: 20:59:40
(UTC+01:00)

OTV 5 (USA 277) - Visible Passes

Search period start: 22 April 2018 00:00
Search period end: 02 May 2018 00:00
Orbit: 310 x 323 km, 54.5° (Epoch: 21 April)

Date Brightness Start Highest point End Pass type
(mag) Time Alt. Az. Time Alt. Az. Time Alt. Az.
22 Apr ? 21:39:39 10° W 21:42:21 64° NNW 21:44:46 12° ENE visible
22 Apr ? 23:14:13 10° WNW 23:15:39 26° WNW 23:15:39 26° WNW visible
23 Apr ? 21:54:12 10° W 21:56:52 49° N 21:58:47 16° ENE visible
23 Apr ? 23:28:41 10° WNW 23:29:40 19° WNW 23:29:40 19° WNW visible
24 Apr ? 22:08:45 10° WNW 22:11:24 47° N 22:12:42 24° ENE visible
24 Apr ? 23:43:08 10° WNW 23:43:34 14° WNW 23:43:34 14° WNW visible
25 Apr ? 20:48:42 10° W 20:51:24 55° N 20:54:04 10° ENE visible
25 Apr ? 22:23:15 10° WNW 22:25:56 54° N 22:26:33 41° ENE visible
26 Apr ? 21:03:16 10° W 21:05:56 47° N 21:08:34 10° ENE visible
26 Apr ? 22:37:42 10° WNW 22:40:22 77° N 22:40:22 77° N visible
27 Apr ? 21:17:48 10° WNW 21:20:28 49° N 21:23:07 10° E visible
27 Apr ? 22:52:09 10° WNW 22:54:09 41° W 22:54:09 41° W visible
28 Apr ? 21:32:16 10° WNW 21:34:58 63° NNE 21:37:05 15° E visible
28 Apr ? 23:06:43 10° W 23:07:57 21° W 23:07:57 21° W visible
29 Apr ? 21:46:43 10° WNW 21:49:26 83° SSW 21:50:53 24° ESE visible
29 Apr ? 23:21:35 10° W 23:21:44 11° W 23:21:44 11° W visible
30 Apr ? 22:01:12 10° WNW 22:03:49 44° SSW 22:04:41 31° SSE visible
01 May ? 22:15:52 10° W 22:18:06 23° SW 22:18:31 22° SSW visible
